Hlavní strana
METAR-TAF:

METAR-TAF

Letiště :

Fayetteville, Tennessee, Spojené státy americké

zeměpisná šířka: 35-03-35N, zeměpisná délka: 086-33-50W, výška: 300 m

Aktuální stav počasí

Zpráva byla vytvořena před 28 minutami, v 10:35 UTC
Bezvětří
Teplota 20°C
Vlhkost vzduchu 88%
Tlak 1021 hPa
Viditelnost: 16.1 km
Jasno

METAR: KFYM 241035Z AUTO 00000KT 10SM CLR 20/18 A3015 RMK A01

Čas: 06:03 (11:03 UTC)


TAF: chybějící

Stav a předpovědi počasí z více než 4 000 letišť (zprávy METAR a TAF).

Červené a žluté tečky na mapě představují dostupné meteorologické stanice.

Když kurzor umístíte na tečku, zobrazí se název stanice.

Pak kliknutím zobrazíte stav a předpověď počasí.

Chcete-li změnit mapu, kliknutím na zelené tlačítko se znaménkem +mapu přiblížíte, kliknutím na zelené tlačítko se znaménkem – mapu oddálíte a kliknutím na zelené šipky přejdete na sousední mapy.


METAR-TAF: